World > North America > United States > Texas

Meldrum, Texas Regional Weather

Lat: 31.92N, Lon: 94.33W
Wx Zone: TXZ153Web Search
Meldrum Weather Warning NWS WEATHER ALERT FOR THE MELDRUM, TX AREA - Issued: 1246 PM CDT Mon Apr 12 2021 Meldrum Weather Warning  

If you are on your PC, you can easily pass this page to your phone by scanning the QR Code near the bottom with your camera.

Feedback


°F Click to change Meldrum hourly weather to Imperial units.Click to change Meldrum hourly weather to Metric units. °C
Meldrum Weather Map
UTC Time: 4/13/2021, 05:19
Your Time:

Meldrum, TX Regional Weather

Expires:202104130600;;471203
ASUS44 KFWD 130515
RWRTX 
NORTH TEXAS HOURLY WEATHER ROUNDUP
NATIONAL WEATHER SERVICE FORT WORTH TX
1200 AM CDT TUE APR 13 2021

NOTE: "FAIR" INDICATES FEW OR NO CLOUDS BELOW 12,000 FEET WITH NO
SIGNIFICANT WEATHER AND/OR OBSTRUCTIONS TO VISIBILITY.


TXZ095>097-106>112-122>126-135>138-148>153-164>167-130600-
EAST TEXAS
  
CITY           SKY/WX    TMP DP  RH WIND       PRES   REMARKS
PARIS          FAIR      63  51  65 N9        29.90S                  
SULPHUR SPRNGS FAIR      66  57  73 N8        29.91S                  
MOUNT PLEASANT FAIR      60  58  92 SE5       29.89S                  
GILMER         FAIR      66  54  63 S3        29.89F                  
MINEOLA        FAIR      61  55  82 CALM      29.88F                  
TYLER          FAIR      66  54  65 SE7       29.89S                  
LONGVIEW       FAIR      63  55  75 S6        29.89R                  
MARSHALL       FAIR      59  54  83 CALM      29.93R                  
ATHENS         FAIR      63  59  88 CALM      29.87F                  
PALESTINE      MOCLDY    70  61  73 SE5       29.88F                  
JACKSONVILLE   FAIR      69  56  64 CALM      29.91S                  
HENDERSON      FAIR      68  55  63 CALM      29.91S                  
CENTER         FAIR      68  52  56 CALM      29.92S                  
NACOGDOCHES    FAIR      67  56  67 S3        29.91S                  
LUFKIN         FAIR      66  56  70 SE6       29.89F                  
$$

SUPPLEMENTAL OBSERVATIONS (NWS FORT WORTH AREA)
  
CITY           SKY/WX    TMP DP  RH WIND       PRES   REMARKS
CADDO GRASSLND   N/A     63  46  55 VRB2        N/A                   
LBJ GRASSLAND    N/A     64  41  42 N8          N/A                   
POSSUM KINGDOM   N/A     55  46  71 NW7G16      N/A                   
GRANBURY         N/A     68  45  42 NW10        N/A                   
COMANCHE         N/A     64  45  48 N10         N/A                   
MCGREGOR         N/A     73  63  68 S9          N/A                   
TEMPLE           N/A     73  63  68 E2G22       N/A                   
LAKE LIMESTONE   N/A     72  63  73 SE2         N/A                   
PALESTINE        N/A     70  57  64 SE1         N/A                   
$$

SUPPLEMENTAL OBSERVATIONS (NWS NORMAN AREA)
  
CITY           SKY/WX    TMP DP  RH WIND       PRES   REMARKS
GOODLETT         N/A     54  35  47 VRB13     30.07S                  
ODELL            N/A     55  35  46 N15       30.07R                  
CROWELL          N/A     56  35  46 NE14      30.05F                  
KNOX CITY        N/A     58  36  44 NE15      30.05R                  
SEYMOUR          N/A     57  37  48 VRB14     30.04R                  
MILLERS CREEK    N/A     57  36  44 N12         N/A                   
$$

SUPPLEMENTAL OBSERVATIONS (NWS SAN ANGELO AREA)
  
CITY           SKY/WX    TMP DP  RH WIND       PRES   REMARKS
WEINERT          N/A     57  37  46 NE9       30.06R                  
HASKELL          N/A     58  38  46 NE10      30.05R                  
THROCKMORTON     N/A     59  39  47 VRB7      30.04R                  
STAMFORD         N/A     59  38  46 N14       30.03S                  
CLYDE            N/A     52  46  79 N13       30.03R                  
HAMBY            N/A     52  46  82 VRB3G17     N/A                   
IVIE RESERVOIR   N/A     57  48  72 N6G17       N/A                   
COLORADO BEND    N/A     73  63  68 S5          N/A                   
$$

SUPPLEMENTAL OBSERVATIONS (NWS SHREVEPORT AREA)
  
CITY           SKY/WX    TMP DP  RH WIND       PRES   REMARKS
TEXARKANA        N/A     55  52  88 CALM        N/A                   
LINDEN           N/A     61  54  77 CALM        N/A                   
LUFKIN           N/A     68  55  64 MISG        N/A                   
N SABINE NF      N/A     66  54  63 MISG        N/A                   
$$

SUPPLEMENTAL OBSERVATIONS ARE A COLLECTION OF AUTOMATED INSTRUMENTS
THAT ARE MAINTAINED BY A VARIETY OF FEDERAL AND STATE AGENCIES. 
CERTAIN ELEMENTS...SUCH AS HUMIDITY VALUES AND SUSTAINED WIND 
SPEEDS...MAY BE APPROXIMATED.

  

SKY/WX - Weather  TMP - Temperature  DP - Dew Point  RH - Relative Humidity
WIND - Wind Direction/Speed PRES - Barometric Pressure VSB - Visibility
WCI - Wind Chill Index E13G22 Wind - East Wind 13 mph/Gusts of 22 mph